Total_Precipitation_Accumulation
0.01 0.05 0.21 0.39 0.67 1.10 1.05 0.58 0.38 0.34 0.35 0.37 0.48 0.48 0.40 0.40 0.56 0.93 0.31 0.06 0.03 0.01 0.02 0.06 0.07 0.06 0.07 0.09 0.13 0.14 0.14 0.15 0.16 0.15 0.13 0.13 0.13 0.12 0.12 0.15 0.17 0.19 0.20 0.20 0.20 0.19 0.19 0.22 0.25
0.01 0.06 0.19 0.43 0.94 1.43 1.10 0.51 0.34 0.38 0.39 0.39 0.43 0.51 0.55 0.37 0.24 0.20 0.12 0.06 0.04 0.02 0.02 0.04 0.08 0.07 0.07 0.09 0.11 0.14 0.15 0.15 0.15 0.14 0.15 0.15 0.16 0.19 0.18 0.19 0.20 0.22 0.23 0.21 0.19 0.17 0.18 0.19 0.24
0.03 0.08 0.19 0.50 0.80 1.01 0.78 0.35 0.30 0.30 0.41 0.46 0.47 0.47 0.52 0.33 0.21 0.13 0.12 0.09 0.06 0.03 0.04 0.08 0.10 0.08 0.08 0.09 0.11 0.13 0.13 0.13 0.14 0.14 0.15 0.16 0.17 0.21 0.24 0.23 0.23 0.24 0.25 0.22 0.19 0.17 0.17 0.18 0.22
0.03 0.08 0.21 0.43 0.44 0.41 0.38 0.27 0.24 0.24 0.34 0.42 0.54 0.54 0.42 0.27 0.24 0.20 0.13 0.12 0.06 0.05 0.06 0.08 0.11 0.09 0.08 0.08 0.10 0.13 0.13 0.12 0.15 0.16 0.16 0.18 0.19 0.21 0.21 0.20 0.21 0.25 0.24 0.22 0.18 0.16 0.16 0.19 0.22
0.03 0.09 0.29 0.36 0.29 0.31 0.32 0.26 0.24 0.21 0.32 0.45 0.49 0.57 0.54 0.36 0.26 0.19 0.14 0.15 0.10 0.07 0.06 0.08 0.10 0.10 0.09 0.09 0.10 0.12 0.12 0.12 0.13 0.15 0.15 0.18 0.21 0.22 0.20 0.20 0.21 0.24 0.23 0.23 0.18 0.16 0.18 0.19 0.23
0.03 0.13 0.27 0.24 0.18 0.18 0.22 0.19 0.21 0.24 0.35 0.56 0.49 0.57 0.70 0.52 0.37 0.28 0.18 0.18 0.15 0.11 0.07 0.09 0.13 0.14 0.12 0.12 0.13 0.13 0.13 0.13 0.15 0.15 0.14 0.17 0.19 0.20 0.21 0.22 0.22 0.25 0.26 0.22 0.18 0.20 0.22 0.24 0.29
0.02 0.09 0.17 0.17 0.13 0.13 0.15 0.18 0.22 0.23 0.39 0.68 0.54 0.69 0.95 0.87 0.52 0.40 0.38 0.30 0.26 0.23 0.20 0.14 0.14 0.17 0.17 0.18 0.17 0.17 0.15 0.16 0.17 0.17 0.16 0.18 0.20 0.19 0.21 0.27 0.29 0.29 0.28 0.26 0.20 0.18 0.18 0.22 0.29
0.01 0.03 0.07 0.11 0.11 0.09 0.09 0.13 0.17 0.30 0.40 0.56 0.47 0.70 1.18 1.04 0.65 0.59 0.65 0.59 0.63 0.57 0.43 0.26 0.23 0.23 0.20 0.17 0.18 0.21 0.19 0.18 0.18 0.18 0.18 0.19 0.22 0.24 0.26 0.29 0.35 0.37 0.37 0.35 0.29 0.23 0.22 0.27 0.32
0.02 0.02 0.05 0.07 0.08 0.07 0.06 0.10 0.13 0.24 0.39 0.58 0.64 0.70 0.92 0.81 0.78 0.84 0.92 0.97 0.98 1.05 0.87 0.51 0.37 0.33 0.31 0.24 0.22 0.27 0.28 0.26 0.26 0.29 0.29 0.36 0.45 0.48 0.57 0.55 0.59 0.58 0.55 0.52 0.49 0.46 0.42 0.40 0.35
0.01 0.01 0.03 0.04 0.04 0.06 0.05 0.10 0.17 0.28 0.55 0.84 0.89 0.89 1.06 0.99 0.81 0.85 0.89 1.03 1.12 1.23 1.10 0.80 0.68 0.50 0.41 0.35 0.42 0.54 0.51 0.53 0.50 0.60 0.61 0.79 1.01 0.95 0.75 0.84 1.03 1.04 1.04 0.96 0.94 0.94 0.77 0.60 0.57
0.00 0.01 0.01 0.02 0.02 0.04 0.05 0.09 0.17 0.35 0.71 1.17 1.44 1.46 1.32 1.18 1.09 1.05 1.00 1.16 1.36 1.38 1.22 0.98 0.92 0.81 0.63 0.68 0.60 0.69 0.81 0.93 0.81 0.81 0.89 1.21 1.17 0.93 0.89 0.99 1.20 1.41 1.39 1.31 1.48 1.56 1.23 1.16 1.39
0.00 0.00 0.00 0.01 0.01 0.02 0.06 0.09 0.18 0.37 0.71 1.00 1.24 1.53 1.64 1.48 1.50 1.45 1.41 1.64 1.81 1.69 1.51 1.29 1.14 0.99 0.91 0.86 0.79 0.80 0.80 0.96 0.96 1.09 1.12 1.30 1.49 1.40 1.35 1.42 1.47 1.60 1.72 2.00 2.00 2.06 1.87 1.78 1.70
0.00 0.00 0.01 0.01 0.01 0.02 0.05 0.15 0.26 0.40 0.54 0.76 0.92 1.09 1.36 1.69 2.00 2.07 2.12 2.51 2.36 2.18 2.04 1.84 1.51 1.42 1.31 1.30 1.27 1.09 1.10 1.20 1.30 1.44 1.44 1.42 1.62 1.63 1.69 1.72 1.77 1.68 1.79 1.99 2.21 2.15 2.23 2.29 2.08
0.00 0.00 0.01 0.01 0.01 0.02 0.07 0.21 0.26 0.43 0.52 0.67 0.89 1.08 1.61 2.19 2.35 2.59 2.92 3.19 3.04 2.83 2.83 2.61 2.26 2.18 2.02 1.80 1.64 1.57 1.46 1.55 1.59 1.66 1.64 1.66 1.87 2.00 1.94 1.78 1.80 1.75 1.80 1.89 2.07 2.19 2.49 2.44 2.34
0.00 0.02 0.03 0.03 0.03 0.04 0.09 0.26 0.35 0.53 0.62 0.75 1.11 1.30 1.74 2.08 2.34 2.46 2.88 3.14 3.09 3.05 3.22 3.22 3.07 3.02 2.83 2.55 2.18 1.96 1.92 1.82 1.93 2.01 1.95 1.99 2.06 2.18 2.10 1.94 1.79 1.85 1.91 2.01 2.04 2.18 2.45 2.43 2.30
0.02 0.05 0.08 0.08 0.08 0.09 0.16 0.53 0.50 0.61 0.82 1.08 1.32 1.46 1.70 1.85 2.20 2.33 2.66 3.05 3.24 3.30 3.48 3.67 3.65 3.63 3.39 3.08 2.74 2.46 2.31 2.23 2.21 2.17 2.12 2.04 2.16 2.19 2.16 1.97 1.77 1.95 1.95 2.02 2.17 2.26 2.41 2.54 2.57
0.04 0.06 0.13 0.17 0.15 0.12 0.28 0.71 0.73 0.83 0.98 1.11 1.23 1.47 1.62 1.62 1.96 2.37 2.66 3.17 3.50 3.63 3.99 4.35 4.42 4.32 3.94 3.49 3.18 3.05 2.87 2.63 2.43 2.37 2.20 2.12 2.14 2.08 2.14 1.92 1.84 1.99 2.15 2.12 1.95 2.27 2.51 2.54 2.57
0.04 0.06 0.10 0.16 0.17 0.17 0.34 0.55 0.69 0.88 1.04 1.16 1.18 1.29 1.33 1.47 1.94 2.47 2.79 3.09 3.67 4.16 4.71 4.70 4.61 4.85 4.64 4.25 3.91 3.60 3.24 2.93 2.66 2.48 2.27 2.04 1.91 1.91 2.13 1.83 1.83 2.05 2.19 2.12 2.15 2.38 2.53 2.41 2.47
0.05 0.09 0.17 0.19 0.17 0.30 0.49 0.65 0.78 0.91 0.96 1.09 1.20 1.19 1.22 1.52 1.95 2.37 2.75 3.09 3.45 4.02 4.52 4.93 4.91 4.76 4.59 4.29 3.79 3.38 2.98 2.78 2.54 2.30 2.10 2.01 1.96 2.05 2.31 2.05 2.09 2.07 2.04 2.03 2.19 2.31 2.21 2.08 2.48
0.08 0.13 0.21 0.26 0.20 0.29 0.49 0.74 0.91 0.93 0.91 0.99 1.14 1.32 1.35 1.60 1.90 2.29 2.73 2.96 3.09 3.39 3.81 4.17 4.29 3.92 3.52 3.32 3.21 3.02 2.93 2.57 2.38 2.35 2.36 2.18 2.15 2.15 2.14 2.17 2.05 2.04 2.05 1.90 1.97 2.17 2.05 1.73 2.10
0.10 0.11 0.12 0.18 0.20 0.32 0.53 0.89 1.02 0.86 0.82 0.90 1.03 1.31 1.51 1.55 1.76 2.04 2.49 2.66 2.70 2.81 2.95 3.07 3.17 3.09 3.03 3.07 3.13 3.15 3.17 2.85 2.72 2.65 2.61 2.36 2.28 2.20 2.21 2.03 1.86 1.84 1.79 1.69 1.68 1.86 1.94 1.74 1.70
0.13 0.08 0.06 0.09 0.22 0.49 0.61 1.07 1.19 0.97 0.91 0.97 1.02 1.13 1.23 1.35 1.41 1.52 1.78 2.14 2.09 2.14 2.39 2.76 2.87 2.88 2.98 3.18 3.20 3.15 3.05 2.99 2.98 3.06 3.05 2.92 2.66 2.40 2.20 1.96 1.76 1.61 1.53 1.53 1.38 1.57 1.68 1.74 1.46
0.07 0.05 0.06 0.10 0.22 0.41 0.51 0.79 1.06 1.09 1.02 0.94 0.92 1.02 1.04 1.09 1.13 1.14 1.27 1.69 1.83 1.79 2.04 2.44 2.82 2.99 3.14 3.32 3.37 3.48 3.43 3.29 3.15 3.14 3.12 2.87 2.70 2.48 2.17 1.97 1.78 1.63 1.51 1.42 1.36 1.47 1.40 1.41 1.31
0.05 0.07 0.15 0.23 0.42 0.79 0.63 0.68 1.09 1.08 0.91 0.81 0.72 0.77 0.86 0.81 0.83 0.90 1.05 1.51 1.87 1.95 2.09 2.21 2.54 2.91 3.13 3.22 3.24 3.21 3.15 3.07 2.87 2.74 2.48 2.22 2.15 2.06 1.89 1.75 1.60 1.48 1.46 1.45 1.36 1.34 1.30 1.30 1.31
0.06 0.16 0.53 0.85 1.13 1.17 0.62 0.65 0.96 0.82 0.78 0.69 0.73 0.76 0.66 0.59 0.63 0.66 0.72 0.85 1.00 1.19 1.37 1.51 1.74 2.09 2.37 2.55 2.59 2.48 2.54 2.50 2.27 2.08 1.91 1.66 1.48 1.35 1.31 1.33 1.31 1.26 1.23 1.18 1.20 1.17 1.15 1.19 1.25
0.07 0.11 0.33 0.55 0.70 0.84 0.77 1.07 1.03 0.70 0.60 0.59 0.62 0.58 0.46 0.41 0.41 0.40 0.42 0.46 0.62 0.83 1.08 1.25 1.36 1.48 1.73 1.87 1.90 1.89 1.91 1.83 1.66 1.69 1.53 1.34 1.17 1.06 1.10 1.14 1.12 1.08 1.08 1.04 1.11 1.03 0.98 1.00 1.03
0.06 0.06 0.10 0.16 0.27 0.56 0.88 1.22 1.10 0.73 0.63 0.58 0.45 0.36 0.31 0.25 0.23 0.24 0.26 0.31 0.40 0.60 0.81 0.94 1.10 1.23 1.42 1.61 1.57 1.52 1.41 1.37 1.38 1.37 1.32 1.23 1.20 1.11 1.16 1.14 1.15 1.11 1.11 1.15 1.12 1.01 0.98 1.06 1.04
0.07 0.08 0.08 0.13 0.29 0.51 0.79 1.14 1.24 0.92 0.81 0.63 0.49 0.45 0.29 0.20 0.17 0.19 0.22 0.29 0.31 0.40 0.60 0.79 0.92 1.08 1.20 1.34 1.33 1.25 1.26 1.19 1.18 1.17 1.16 1.14 1.17 1.23 1.27 1.20 1.20 1.17 1.12 1.11 1.08 0.96 0.97 1.09 1.15
0.10 0.10 0.10 0.11 0.14 0.35 0.68 0.92 0.86 0.81 0.69 0.57 0.52 0.44 0.33 0.25 0.17 0.17 0.22 0.29 0.36 0.48 0.64 0.79 0.90 1.00 1.10 1.09 1.10 1.12 1.09 1.11 1.13 1.06 1.03 1.07 1.17 1.23 1.26 1.24 1.20 1.13 1.08 1.09 1.10 1.01 1.08 1.17 1.21
0.11 0.11 0.12 0.16 0.14 0.17 0.35 0.64 0.53 0.49 0.52 0.51 0.45 0.43 0.36 0.29 0.27 0.27 0.29 0.35 0.43 0.53 0.64 0.78 0.93 1.04 1.13 1.18 1.26 1.32 1.35 1.36 1.30 1.17 1.11 1.16 1.24 1.32 1.35 1.35 1.31 1.19 1.18 1.28 1.30 1.23 1.28 1.33 1.31